Date String (YYYY-MM-DD hh:mm:ss) UTC,Instrument flags,Ambient pressure (hPa),Sample flow (lpm),Bypass flow (lpm),Sample temperature (°C),Ambient temperature (°C),ASC tube jacket temperature (°C),LED temperature (°C),Box temperature (°C),Sample RH (%),Span deviation,Mass concentration (μg/m³),Mass concentration (μg/m³),Mass concentration (μg/m³)
DateTimeUTC,F1_M11,P_M11,Q1_M11,Q2_M11,T1_M11,T2_M11,T3_M11,T4_M11,T5_M11,U1_M11,ZSPAN_M11,X0_M11,X2_M11,X1_M11
2022-05-11 12:00:00,,0823.1,5.01,0.00,25.9,25.2,00.0,34.9,27.8,14.9,0000.0,0025.87,0005.76,0002.77
2022-05-11 12:01:00,,0823.1,4.99,0.00,25.9,25.2,00.0,34.9,27.8,14.7,0000.0,0024.87,0005.84,0002.76
2022-05-11 12:02:00,,0823.1,5.01,0.00,25.9,25.2,00.0,34.9,27.8,14.7,0000.0,0024.62,0005.90,0002.75
2022-05-11 12:03:00,,0823.1,5.00,0.00,26.0,25.2,00.0,34.9,27.8,14.7,0000.0,0024.09,0005.94,0002.77
2022-05-11 12:04:00,,0823.2,5.00,0.00,26.0,25.2,00.0,34.9,27.8,14.9,0000.0,0023.34,0005.90,0002.76
2022-05-11 12:05:00,,0823.1,5.00,0.00,26.0,25.3,00.0,34.9,27.9,14.8,0000.0,0023.60,0005.89,0002.75
2022-05-11 12:06:00,,0823.1,5.00,0.00,26.0,25.3,00.0,34.9,27.9,14.5,0000.0,0023.17,0005.90,0002.74
2022-05-11 12:07:00,,0823.1,5.00,0.00,26.0,25.3,00.0,34.9,27.9,14.2,0000.0,0022.22,0005.97,0002.73
2022-05-11 12:08:00,,0823.1,5.01,0.00,26.0,25.3,00.0,34.9,27.8,14.1,0000.0,0022.68,0005.97,0002.72
2022-05-11 12:09:00,,0823.1,5.00,0.00,25.9,25.2,00.0,34.9,27.8,14.2,0000.0,0023.30,0005.99,0002.73
2022-05-11 12:10:00,,0823.1,5.00,0.00,25.9,25.2,00.0,34.9,27.8,14.2,0000.0,0023.05,0006.10,0002.71
2022-05-11 12:11:00,,0823.1,4.99,0.00,25.9,25.2,00.0,34.9,27.8,14.2,0000.0,0023.58,0006.06,0002.69
2022-05-11 12:12:00,,0823.1,5.01,0.00,25.9,25.2,00.0,34.9,27.7,14.1,0000.0,0022.84,0005.93,0002.71
2022-05-11 12:13:00,,0823.1,4.99,0.00,25.9,25.2,00.0,34.9,27.7,13.8,0000.0,0022.21,0005.90,0002.71
2022-05-11 12:14:00,,0823.1,5.00,0.00,25.9,25.2,00.0,34.9,27.7,14.0,0000.0,0022.05,0005.94,0002.68
2022-05-11 12:15:00,,0823.1,5.01,0.00,25.9,25.2,00.0,34.9,27.7,14.1,0000.0,0022.29,0006.06,0002.69
2022-05-11 12:16:00,,0823.1,4.99,0.00,25.9,25.2,00.0,34.9,27.7,13.8,0000.0,0022.32,0006.09,0002.68
2022-05-11 12:17:00,,0823.2,5.01,0.00,25.9,25.2,00.0,34.9,27.7,13.6,0000.0,0022.14,0006.13,0002.69
2022-05-11 12:18:00,,0823.1,4.99,0.00,25.9,25.2,00.0,34.9,27.7,13.7,0000.0,0021.83,0006.13,0002.72
2022-05-11 12:19:00,,0823.2,5.01,0.00,25.9,25.2,00.0,34.9,27.8,13.7,0000.0,0022.39,0006.19,0002.73
2022-05-11 12:20:00,,0823.3,5.01,0.00,25.9,25.2,00.0,34.9,27.8,13.6,0000.0,0022.40,0006.27,0002.71
2022-05-11 12:21:00,,0823.2,4.99,0.00,25.9,25.2,00.0,34.9,27.8,13.5,0000.0,0023.07,0006.29,0002.70
2022-05-11 12:22:00,,0823.2,5.02,0.00,25.9,25.2,00.0,34.9,27.8,13.7,0000.0,0023.85,0006.51,0002.70
2022-05-11 12:23:00,,0823.3,5.00,0.00,26.0,25.3,00.0,34.9,27.8,14.0,0000.0,0024.88,0006.57,0002.68
2022-05-11 12:24:00,,0823.2,5.01,0.00,26.0,25.3,00.0,34.9,27.8,14.0,0000.0,0025.29,0006.58,0002.68
2022-05-11 12:25:00,,0823.3,5.00,0.00,26.0,25.3,00.0,34.9,27.8,14.1,0000.0,0026.02,0006.53,0002.69
2022-05-11 12:26:00,,0823.3,4.99,0.00,26.0,25.3,00.0,34.9,27.8,13.9,0000.0,0024.87,0006.41,0002.68
2022-05-11 12:27:00,,0823.3,5.01,0.00,26.0,25.3,00.0,34.9,27.9,13.9,0000.0,0024.31,0006.39,0002.69
2022-05-11 12:28:00,,0823.3,4.99,0.00,26.0,25.3,00.0,34.9,27.9,14.1,0000.0,0023.79,0006.33,0002.67
2022-05-11 12:29:00,,0823.4,5.00,0.00,26.0,25.4,00.0,34.9,27.9,15.1,0000.0,0024.46,0006.29,0002.63
2022-05-11 12:30:00,,0823.4,4.99,0.00,26.0,25.4,00.0,34.9,27.9,15.0,0000.0,0022.81,0006.17,0002.63
2022-05-11 12:31:00,,0823.3,5.01,0.00,26.0,25.4,00.0,34.9,27.9,15.5,0000.0,0022.26,0005.98,0002.62
2022-05-11 12:32:00,,0823.4,4.99,0.00,26.0,25.4,00.0,34.9,27.9,15.5,0000.0,0022.70,0005.86,0002.63
2022-05-11 12:33:00,,0823.4,5.01,0.00,26.1,25.4,00.0,34.9,28.0,15.4,0000.0,0021.68,0005.66,0002.64
2022-05-11 12:34:00,,0823.4,4.99,0.00,26.1,25.5,00.0,35.0,28.0,14.8,0000.0,0021.13,0005.69,0002.63
2022-05-11 12:35:00,,0823.3,5.01,0.00,26.1,25.5,00.0,35.0,28.0,14.8,0000.0,0020.87,0005.64,0002.61
2022-05-11 12:36:00,,0823.4,5.00,0.00,26.1,25.5,00.0,35.0,28.0,15.8,0000.0,0021.21,0005.58,0002.62
2022-05-11 12:37:00,,0823.4,5.00,0.00,26.1,25.5,00.0,35.0,28.0,15.1,0000.0,0022.96,0005.60,0002.61
2022-05-11 12:38:00,,0823.4,4.99,0.00,26.2,25.5,00.0,35.0,28.0,14.6,0000.0,0023.14,0005.58,0002.61
2022-05-11 12:39:00,,0823.3,5.00,0.00,26.2,25.6,00.0,35.0,28.1,14.4,0000.0,0024.11,0005.62,0002.62
2022-05-11 12:40:00,,0823.3,5.01,0.00,26.2,25.6,00.0,35.0,28.1,14.2,0000.0,0023.37,0005.68,0002.64
2022-05-11 12:41:00,,0823.3,4.99,0.00,26.2,25.6,00.0,35.1,28.1,14.2,0000.0,0024.68,0005.72,0002.65
2022-05-11 12:42:00,,0823.3,5.01,0.00,26.3,25.6,00.0,35.1,28.2,14.2,0000.0,0025.34,0005.85,0002.67
2022-05-11 12:43:00,,0823.3,5.00,0.00,26.3,25.6,00.0,35.1,28.2,14.2,0000.0,0024.45,0005.97,0002.68
2022-05-11 12:44:00,,0823.3,4.99,0.00,26.3,25.7,00.0,35.1,28.2,14.3,0000.0,0023.80,0006.00,0002.66
2022-05-11 12:45:00,,0823.3,5.01,0.00,26.4,25.7,00.0,35.1,28.3,14.3,0000.0,0023.57,0005.97,0002.68
2022-05-11 12:46:00,,0823.3,5.01,0.00,26.4,25.7,00.0,35.2,28.3,14.3,0000.0,0024.61,0005.98,0002.69
2022-05-11 12:47:00,,0823.4,5.00,0.00,26.4,25.7,00.0,35.2,28.3,14.3,0000.0,0024.95,0006.07,0002.70
2022-05-11 12:48:00,,0823.3,5.01,0.00,26.4,25.8,00.0,35.2,28.3,14.4,0000.0,0023.88,0006.15,0002.71
2022-05-11 12:49:00,,0823.3,5.00,0.00,26.5,25.8,00.0,35.2,28.3,14.5,0000.0,0023.01,0006.19,0002.70
2022-05-11 12:50:00,,0823.3,5.01,0.00,26.5,25.8,00.0,35.3,28.4,14.1,0000.0,0022.07,0006.17,0002.72
2022-05-11 12:51:00,,0823.2,4.99,0.00,26.5,25.8,00.0,35.3,28.4,13.9,0000.0,0021.93,0006.15,0002.72
2022-05-11 12:52:00,,0823.2,5.00,0.00,26.5,25.8,00.0,35.3,28.4,14.1,0000.0,0022.00,0006.12,0002.70
2022-05-11 12:53:00,,0823.2,5.00,0.00,26.6,25.9,00.0,35.3,28.5,14.4,0000.0,0020.81,0006.06,0002.69
2022-05-11 12:54:00,,0823.3,5.00,0.00,26.6,25.9,00.0,35.3,28.5,15.3,0000.0,0021.03,0006.02,0002.68
2022-05-11 12:55:00,,0823.3,4.99,0.00,26.6,25.9,00.0,35.4,28.5,14.8,0000.0,0021.98,0006.02,0002.70
2022-05-11 12:56:00,,0823.2,5.01,0.00,26.6,25.9,00.0,35.4,28.5,14.3,0000.0,0022.01,0006.04,0002.71
2022-05-11 12:57:00,,0823.1,4.99,0.00,26.6,25.9,00.0,35.4,28.5,14.0,0000.0,0021.58,0006.05,0002.69
2022-05-11 12:58:00,,0823.1,5.00,0.00,26.6,25.9,00.0,35.4,28.5,14.3,0000.0,0021.13,0006.02,0002.70
2022-05-11 12:59:00,,0823.2,5.01,0.00,26.6,25.9,00.0,35.4,28.5,15.6,0000.0,0022.60,0005.98,0002.67
